Year,Month,Day,Hour,Minute,Value (Times are PST for windspeed in km/hr)
2009,05,26,00,00,0.10
2009,05,26,00,01,0.90
2009,05,26,00,02,0.90
2009,05,26,00,03,0.60
2009,05,26,00,04,1.90
2009,05,26,00,05,0.20
2009,05,26,00,06,1.50
2009,05,26,00,07,1.50
2009,05,26,00,08,0.80
2009,05,26,00,09,2.50
2009,05,26,00,10,1.50
2009,05,26,00,11,1.00
2009,05,26,00,12,0.40
2009,05,26,00,13,0.50
2009,05,26,00,14,1.70
2009,05,26,00,15,3.90
2009,05,26,00,16,3.10
2009,05,26,00,17,1.50
2009,05,26,00,18,0.30
2009,05,26,00,19,0.60
2009,05,26,00,20,1.90
2009,05,26,00,21,3.90
2009,05,26,00,22,3.60
2009,05,26,00,23,2.50
2009,05,26,00,24,4.50
2009,05,26,00,25,4.70
2009,05,26,00,26,4.70
2009,05,26,00,27,4.00
2009,05,26,00,28,4.80
2009,05,26,00,29,4.40
2009,05,26,00,30,2.70
2009,05,26,00,31,0.20
2009,05,26,00,32,0.20
2009,05,26,00,33,2.00
2009,05,26,00,34,1.80
2009,05,26,00,35,1.00
2009,05,26,00,36,3.20
2009,05,26,00,37,2.70
2009,05,26,00,38,3.00
2009,05,26,00,39,3.80
2009,05,26,00,40,3.70
2009,05,26,00,41,3.20
2009,05,26,00,42,3.00
2009,05,26,00,43,2.80
2009,05,26,00,44,3.40
2009,05,26,00,45,4.90
2009,05,26,00,46,3.60
2009,05,26,00,47,2.00
2009,05,26,00,48,1.80
2009,05,26,00,49,1.40
2009,05,26,00,50,0.30
2009,05,26,00,51,0.20
2009,05,26,00,52,0.10
2009,05,26,00,53,1.50
2009,05,26,00,54,0.20
2009,05,26,00,55,2.00
2009,05,26,00,56,2.10
2009,05,26,00,57,1.60
2009,05,26,00,58,0.20
2009,05,26,00,59,1.00
2009,05,26,01,00,1.00
2009,05,26,01,01,1.00
2009,05,26,01,02,0.80
2009,05,26,01,03,1.20
2009,05,26,01,04,1.00
2009,05,26,01,05,0.00
2009,05,26,01,06,1.70
2009,05,26,01,07,0.80
2009,05,26,01,08,1.00
2009,05,26,01,09,0.20
2009,05,26,01,10,0.10
2009,05,26,01,11,1.90
2009,05,26,01,12,2.40
2009,05,26,01,13,1.00
2009,05,26,01,14,0.50
2009,05,26,01,15,0.70
2009,05,26,01,16,2.30
2009,05,26,01,17,2.10
2009,05,26,01,18,3.20
2009,05,26,01,19,2.40
2009,05,26,01,20,1.00
2009,05,26,01,21,0.20
2009,05,26,01,22,0.20
2009,05,26,01,23,2.20
2009,05,26,01,24,2.70
2009,05,26,01,25,2.80
2009,05,26,01,26,1.00
2009,05,26,01,27,1.10
2009,05,26,01,28,1.70
2009,05,26,01,29,1.70
2009,05,26,01,30,0.60
2009,05,26,01,31,2.10
2009,05,26,01,32,1.40
2009,05,26,01,33,3.20
2009,05,26,01,34,2.20
2009,05,26,01,35,3.10
2009,05,26,01,36,1.90
2009,05,26,01,37,0.40
2009,05,26,01,38,3.30
2009,05,26,01,39,2.20
2009,05,26,01,40,1.00
2009,05,26,01,41,1.80
2009,05,26,01,42,0.20
2009,05,26,01,43,1.70
2009,05,26,01,44,3.90
2009,05,26,01,45,3.00
2009,05,26,01,46,1.80
2009,05,26,01,47,3.30
2009,05,26,01,48,4.10
2009,05,26,01,49,4.50
2009,05,26,01,50,2.30
2009,05,26,01,51,0.90
2009,05,26,01,52,1.80
2009,05,26,01,53,1.40
2009,05,26,01,54,0.60
2009,05,26,01,55,2.40
2009,05,26,01,56,2.10
2009,05,26,01,57,1.80
2009,05,26,01,58,0.90
2009,05,26,01,59,3.30
2009,05,26,02,00,2.30
2009,05,26,02,01,1.60
2009,05,26,02,02,4.70
2009,05,26,02,03,3.00
2009,05,26,02,04,2.90
2009,05,26,02,05,2.80
2009,05,26,02,06,2.50
2009,05,26,02,07,4.10
2009,05,26,02,08,3.80
2009,05,26,02,09,4.30
2009,05,26,02,10,4.10
2009,05,26,02,11,4.30
2009,05,26,02,12,4.20
2009,05,26,02,13,3.80
2009,05,26,02,14,1.90
2009,05,26,02,15,4.40
2009,05,26,02,16,5.10
2009,05,26,02,17,4.70
2009,05,26,02,18,4.30
2009,05,26,02,19,4.00
2009,05,26,02,20,4.70
2009,05,26,02,21,4.70
2009,05,26,02,22,1.30
2009,05,26,02,23,1.90
2009,05,26,02,24,4.40
2009,05,26,02,25,5.30
2009,05,26,02,26,3.50
2009,05,26,02,27,4.00
2009,05,26,02,28,2.20
2009,05,26,02,29,3.40
2009,05,26,02,30,2.30
2009,05,26,02,31,0.30
2009,05,26,02,32,4.20
2009,05,26,02,33,2.60
2009,05,26,02,34,2.30
2009,05,26,02,35,2.00
2009,05,26,02,36,3.10
2009,05,26,02,37,5.40
2009,05,26,02,38,1.70
2009,05,26,02,39,0.50
2009,05,26,02,40,1.00
2009,05,26,02,41,2.60
2009,05,26,02,42,4.30
2009,05,26,02,43,2.30
2009,05,26,02,44,0.10
2009,05,26,02,45,2.40
2009,05,26,02,46,2.70
2009,05,26,02,47,5.40
2009,05,26,02,48,4.10
2009,05,26,02,49,4.90
2009,05,26,02,50,4.40
2009,05,26,02,51,3.50
2009,05,26,02,52,1.10
2009,05,26,02,53,2.70
2009,05,26,02,54,3.00
2009,05,26,02,55,3.90
2009,05,26,02,56,3.30
2009,05,26,02,57,3.70
2009,05,26,02,58,4.70
2009,05,26,02,59,5.50
2009,05,26,03,00,6.60
2009,05,26,03,01,3.30
2009,05,26,03,02,1.70
2009,05,26,03,03,2.30
2009,05,26,03,04,5.40
2009,05,26,03,05,4.40
2009,05,26,03,06,5.20
2009,05,26,03,07,4.90
2009,05,26,03,08,5.70
2009,05,26,03,09,2.50
2009,05,26,03,10,4.80
2009,05,26,03,11,3.10
2009,05,26,03,12,2.00
2009,05,26,03,13,2.10
2009,05,26,03,14,1.90
2009,05,26,03,15,1.70
2009,05,26,03,16,3.60
2009,05,26,03,17,5.40
2009,05,26,03,18,3.50
2009,05,26,03,19,2.70
2009,05,26,03,20,2.80
2009,05,26,03,21,2.10
2009,05,26,03,22,1.00
2009,05,26,03,23,4.30
2009,05,26,03,24,5.80
2009,05,26,03,25,3.90
2009,05,26,03,26,4.70
2009,05,26,03,27,3.50
2009,05,26,03,28,1.70
2009,05,26,03,29,1.80
2009,05,26,03,30,0.10
2009,05,26,03,31,0.20
2009,05,26,03,32,3.40
2009,05,26,03,33,2.70
2009,05,26,03,34,1.00
2009,05,26,03,35,0.60
2009,05,26,03,36,3.60
2009,05,26,03,37,2.10
2009,05,26,03,38,0.60
2009,05,26,03,39,0.80
2009,05,26,03,40,3.10
2009,05,26,03,41,2.70
2009,05,26,03,42,3.70
2009,05,26,03,43,4.70
2009,05,26,03,44,1.30
2009,05,26,03,45,1.40
2009,05,26,03,46,4.20
2009,05,26,03,47,2.40
2009,05,26,03,48,1.50
2009,05,26,03,49,1.90
2009,05,26,03,50,2.50
2009,05,26,03,51,5.30
2009,05,26,03,52,4.90
2009,05,26,03,53,3.90
2009,05,26,03,54,4.10
2009,05,26,03,55,3.70
2009,05,26,03,56,4.10
2009,05,26,03,57,5.40
2009,05,26,03,58,4.90
2009,05,26,03,59,5.20
2009,05,26,04,00,5.40
2009,05,26,04,01,3.70
2009,05,26,04,02,3.40
2009,05,26,04,03,3.50
2009,05,26,04,04,3.10
2009,05,26,04,05,4.30
2009,05,26,04,06,4.40
2009,05,26,04,07,2.80
2009,05,26,04,08,3.90
2009,05,26,04,09,2.70
2009,05,26,04,10,2.80
2009,05,26,04,11,3.30
2009,05,26,04,12,4.50
2009,05,26,04,13,1.90
2009,05,26,04,14,3.00
2009,05,26,04,15,3.40
2009,05,26,04,16,4.00
2009,05,26,04,17,4.40
2009,05,26,04,18,5.00
2009,05,26,04,19,4.00
2009,05,26,04,20,5.10
2009,05,26,04,21,6.20
2009,05,26,04,22,5.00
2009,05,26,04,23,2.00
2009,05,26,04,24,3.60
2009,05,26,04,25,5.90
2009,05,26,04,26,5.10
2009,05,26,04,27,5.10
2009,05,26,04,28,3.90
2009,05,26,04,29,3.40
2009,05,26,04,30,3.30
2009,05,26,04,31,4.10
2009,05,26,04,32,2.70
2009,05,26,04,33,3.00
2009,05,26,04,34,2.30
2009,05,26,04,35,2.90
2009,05,26,04,36,2.70
2009,05,26,04,37,2.30
2009,05,26,04,38,2.20
2009,05,26,04,39,2.70
2009,05,26,04,40,2.30
2009,05,26,04,41,4.80
2009,05,26,04,42,2.40
2009,05,26,04,43,0.70
2009,05,26,04,44,3.10
2009,05,26,04,45,6.10
2009,05,26,04,46,5.80
2009,05,26,04,47,5.20
2009,05,26,04,48,4.00
2009,05,26,04,49,2.30
2009,05,26,04,50,3.70
2009,05,26,04,51,3.80
2009,05,26,04,52,1.50
2009,05,26,04,53,2.80
2009,05,26,04,54,3.50
2009,05,26,04,55,0.70
2009,05,26,04,56,0.00
2009,05,26,04,57,3.60
2009,05,26,04,58,3.00
2009,05,26,04,59,2.80
2009,05,26,05,00,3.50
2009,05,26,05,01,3.10
2009,05,26,05,02,4.70
2009,05,26,05,03,2.20
2009,05,26,05,04,0.80
2009,05,26,05,05,0.10
2009,05,26,05,06,2.00
2009,05,26,05,07,1.00
2009,05,26,05,08,2.70
2009,05,26,05,09,5.20
2009,05,26,05,10,6.90
2009,05,26,05,11,5.00
2009,05,26,05,12,1.20
2009,05,26,05,13,4.00
2009,05,26,05,14,7.20
2009,05,26,05,15,4.20
2009,05,26,05,16,4.60
2009,05,26,05,17,4.30
2009,05,26,05,18,2.00
2009,05,26,05,19,1.50
2009,05,26,05,20,3.10
2009,05,26,05,21,3.10
2009,05,26,05,22,3.10
2009,05,26,05,23,1.60
2009,05,26,05,24,3.30
2009,05,26,05,25,1.60
2009,05,26,05,26,7.00
2009,05,26,05,27,4.70
2009,05,26,05,28,2.90
2009,05,26,05,29,1.90
2009,05,26,05,30,2.70
2009,05,26,05,31,4.50
2009,05,26,05,32,1.60
2009,05,26,05,33,3.70
2009,05,26,05,34,3.60
2009,05,26,05,35,1.30
2009,05,26,05,36,2.60
2009,05,26,05,37,5.20
2009,05,26,05,38,1.90
2009,05,26,05,39,1.80
2009,05,26,05,40,3.70
2009,05,26,05,41,6.40
2009,05,26,05,42,2.90
2009,05,26,05,43,5.40
2009,05,26,05,44,8.10
2009,05,26,05,45,3.20
2009,05,26,05,46,4.00
2009,05,26,05,47,3.00
2009,05,26,05,48,2.10
2009,05,26,05,49,3.80
2009,05,26,05,50,3.10
2009,05,26,05,51,5.90
2009,05,26,05,52,4.70
2009,05,26,05,53,5.50
2009,05,26,05,54,4.50
2009,05,26,05,55,1.90
2009,05,26,05,56,1.90
2009,05,26,05,57,4.70
2009,05,26,05,58,1.90
2009,05,26,05,59,2.50
2009,05,26,06,00,4.10
2009,05,26,06,01,3.80
2009,05,26,06,02,2.60
2009,05,26,06,03,2.70
2009,05,26,06,04,4.20
2009,05,26,06,05,4.70
2009,05,26,06,06,4.90
2009,05,26,06,07,3.10
2009,05,26,06,08,5.90
2009,05,26,06,09,3.20
2009,05,26,06,10,4.90
2009,05,26,06,11,4.00
2009,05,26,06,12,7.50
2009,05,26,06,13,5.70
2009,05,26,06,14,2.70
2009,05,26,06,15,7.20
2009,05,26,06,16,5.00
2009,05,26,06,17,5.70
2009,05,26,06,18,3.10
2009,05,26,06,19,4.10
2009,05,26,06,20,4.20
2009,05,26,06,21,3.90
2009,05,26,06,22,6.70
2009,05,26,06,23,3.40
2009,05,26,06,24,2.70
2009,05,26,06,25,3.50
2009,05,26,06,26,3.90
2009,05,26,06,27,3.20
2009,05,26,06,28,3.30
2009,05,26,06,29,4.10
2009,05,26,06,30,4.60
2009,05,26,06,31,1.00
2009,05,26,06,32,2.90
2009,05,26,06,33,3.80
2009,05,26,06,34,2.60
2009,05,26,06,35,3.40
2009,05,26,06,36,4.10
2009,05,26,06,37,2.30
2009,05,26,06,38,5.10
2009,05,26,06,39,5.60
2009,05,26,06,40,4.50
2009,05,26,06,41,3.50
2009,05,26,06,42,3.50
2009,05,26,06,43,3.00
2009,05,26,06,44,2.60
2009,05,26,06,45,3.50
2009,05,26,06,46,3.90
2009,05,26,06,47,4.30
2009,05,26,06,48,5.50
2009,05,26,06,49,7.20
2009,05,26,06,50,6.40
2009,05,26,06,51,5.50
2009,05,26,06,52,5.10
2009,05,26,06,53,5.70
2009,05,26,06,54,5.60
2009,05,26,06,55,7.10
2009,05,26,06,56,8.40
2009,05,26,06,57,8.00
2009,05,26,06,58,6.40
2009,05,26,06,59,6.00
2009,05,26,07,00,5.10
2009,05,26,07,01,4.20
2009,05,26,07,02,4.80
2009,05,26,07,03,6.90
2009,05,26,07,04,4.80
2009,05,26,07,05,6.40
2009,05,26,07,06,6.80
2009,05,26,07,07,6.80
2009,05,26,07,08,5.80
2009,05,26,07,09,5.60
2009,05,26,07,10,4.90
2009,05,26,07,11,8.30
2009,05,26,07,12,4.30
2009,05,26,07,13,3.10
2009,05,26,07,14,8.90
2009,05,26,07,15,6.50
2009,05,26,07,16,6.30
2009,05,26,07,17,5.70
2009,05,26,07,18,6.10
2009,05,26,07,19,3.90
2009,05,26,07,20,3.60
2009,05,26,07,21,6.40
2009,05,26,07,22,4.00
2009,05,26,07,23,3.70
2009,05,26,07,24,4.30
2009,05,26,07,25,5.40
2009,05,26,07,26,5.50
2009,05,26,07,27,5.40
2009,05,26,07,28,5.80
2009,05,26,07,29,6.80
2009,05,26,07,30,7.40
2009,05,26,07,31,5.10
2009,05,26,07,32,2.00
2009,05,26,07,33,2.70
2009,05,26,07,34,5.60
2009,05,26,07,35,4.30
2009,05,26,07,36,5.00
2009,05,26,07,37,3.30
2009,05,26,07,38,3.20
2009,05,26,07,39,6.50
2009,05,26,07,40,5.50
2009,05,26,07,41,5.60
2009,05,26,07,42,4.80
2009,05,26,07,43,4.40
2009,05,26,07,44,5.70
2009,05,26,07,45,6.70
2009,05,26,07,46,3.00
2009,05,26,07,47,5.60
2009,05,26,07,48,4.80
2009,05,26,07,49,3.00
2009,05,26,07,50,1.40
2009,05,26,07,51,5.40
2009,05,26,07,52,3.80
2009,05,26,07,53,0.10
2009,05,26,07,54,0.80
2009,05,26,07,55,3.70
2009,05,26,07,56,3.10
2009,05,26,07,57,1.10
2009,05,26,07,58,1.70
2009,05,26,07,59,0.20
2009,05,26,08,00,2.50
2009,05,26,08,01,1.80
2009,05,26,08,02,5.60
2009,05,26,08,03,4.30
2009,05,26,08,04,4.70
2009,05,26,08,05,3.60
2009,05,26,08,06,3.50
2009,05,26,08,07,3.70
2009,05,26,08,08,5.00
2009,05,26,08,09,4.50
2009,05,26,08,10,5.20
2009,05,26,08,11,3.50
2009,05,26,08,12,3.10
2009,05,26,08,13,5.40
2009,05,26,08,14,5.00
2009,05,26,08,15,3.20
2009,05,26,08,16,4.30
2009,05,26,08,17,4.20
2009,05,26,08,18,3.00
2009,05,26,08,19,5.10
2009,05,26,08,20,4.70
2009,05,26,08,21,3.20
2009,05,26,08,22,4.20
2009,05,26,08,23,6.40
2009,05,26,08,24,4.60
2009,05,26,08,25,6.20
2009,05,26,08,26,5.60
2009,05,26,08,27,5.10
2009,05,26,08,28,2.50
2009,05,26,08,29,3.10
2009,05,26,08,30,4.90
2009,05,26,08,31,5.10
2009,05,26,08,32,1.10
2009,05,26,08,33,2.30
2009,05,26,08,34,1.40
2009,05,26,08,35,3.80
2009,05,26,08,36,3.90
2009,05,26,08,37,1.80
2009,05,26,08,38,3.10
2009,05,26,08,39,3.10
2009,05,26,08,40,0.80
2009,05,26,08,41,2.70
2009,05,26,08,42,4.40
2009,05,26,08,43,6.40
2009,05,26,08,44,8.70
2009,05,26,08,45,5.80
2009,05,26,08,46,5.00
2009,05,26,08,47,4.20
2009,05,26,08,48,3.80
2009,05,26,08,49,3.90
2009,05,26,08,50,3.80
2009,05,26,08,51,5.60
2009,05,26,08,52,4.70
2009,05,26,08,53,1.70
2009,05,26,08,54,3.00
2009,05,26,08,55,5.80
2009,05,26,08,56,4.60
2009,05,26,08,57,3.70
2009,05,26,08,58,1.80
2009,05,26,08,59,4.30
2009,05,26,09,00,4.20
2009,05,26,09,01,3.10
2009,05,26,09,02,2.60
2009,05,26,09,03,3.80
2009,05,26,09,04,2.80
2009,05,26,09,05,5.30
2009,05,26,09,06,6.00
2009,05,26,09,07,7.70
2009,05,26,09,08,5.60
2009,05,26,09,09,5.00
2009,05,26,09,10,6.20
2009,05,26,09,11,4.80
2009,05,26,09,12,6.80
2009,05,26,09,13,7.30
2009,05,26,09,14,7.60
2009,05,26,09,15,5.70
2009,05,26,09,16,5.00
2009,05,26,09,17,7.20
2009,05,26,09,18,7.80
2009,05,26,09,19,6.20
2009,05,26,09,20,5.80
2009,05,26,09,21,6.10
2009,05,26,09,22,6.80
2009,05,26,09,23,6.40
2009,05,26,09,24,5.20
2009,05,26,09,25,3.10
2009,05,26,09,26,6.70
2009,05,26,09,27,3.00
2009,05,26,09,28,3.10
2009,05,26,09,29,4.30
2009,05,26,09,30,6.00
2009,05,26,09,31,4.70
2009,05,26,09,32,4.30
2009,05,26,09,33,5.30
2009,05,26,09,34,4.80
2009,05,26,09,35,6.00
2009,05,26,09,36,1.00
2009,05,26,09,37,5.30
2009,05,26,09,38,4.80
2009,05,26,09,39,3.00
2009,05,26,09,40,4.30
2009,05,26,09,41,8.80
2009,05,26,09,42,9.10
2009,05,26,09,43,6.10
2009,05,26,09,44,6.70
2009,05,26,09,45,7.30
2009,05,26,09,46,9.20
2009,05,26,09,47,13.10
2009,05,26,09,48,11.00
2009,05,26,09,49,10.90
2009,05,26,09,50,9.30
2009,05,26,09,51,12.20
2009,05,26,09,52,11.40
2009,05,26,09,53,12.00
2009,05,26,09,54,8.10
2009,05,26,09,55,6.30
2009,05,26,09,56,9.90
2009,05,26,09,57,8.40
2009,05,26,09,58,9.50
2009,05,26,09,59,9.10
2009,05,26,10,00,7.70
2009,05,26,10,01,6.10
2009,05,26,10,02,8.00
2009,05,26,10,03,9.70
2009,05,26,10,04,6.10
2009,05,26,10,05,7.10
2009,05,26,10,06,12.60
2009,05,26,10,07,10.00
2009,05,26,10,08,7.30
2009,05,26,10,09,8.10
2009,05,26,10,10,7.00
2009,05,26,10,11,5.60
2009,05,26,10,12,5.50
2009,05,26,10,13,6.90
2009,05,26,10,14,8.60
2009,05,26,10,15,10.10
2009,05,26,10,16,12.10
2009,05,26,10,17,8.90
2009,05,26,10,18,10.90
2009,05,26,10,19,15.00
2009,05,26,10,20,11.30
2009,05,26,10,21,10.40
2009,05,26,10,22,9.50
2009,05,26,10,23,10.40
2009,05,26,10,24,7.60
2009,05,26,10,25,5.90
2009,05,26,10,26,8.40
2009,05,26,10,27,5.00
2009,05,26,10,28,5.30
2009,05,26,10,29,5.50
2009,05,26,10,30,6.00
2009,05,26,10,31,8.90
2009,05,26,10,32,8.50
2009,05,26,10,33,8.10
2009,05,26,10,34,9.10
2009,05,26,10,35,8.90
2009,05,26,10,36,10.10
2009,05,26,10,37,8.10
2009,05,26,10,38,8.00
2009,05,26,10,39,7.40
2009,05,26,10,40,7.00
2009,05,26,10,41,10.60
2009,05,26,10,42,6.60
2009,05,26,10,43,4.70
2009,05,26,10,44,4.30
2009,05,26,10,45,7.80
2009,05,26,10,46,12.50
2009,05,26,10,47,9.70
2009,05,26,10,48,8.40
2009,05,26,10,49,5.60
2009,05,26,10,50,13.20
2009,05,26,10,51,7.60
2009,05,26,10,52,4.00
2009,05,26,10,53,2.90
2009,05,26,10,54,8.90
2009,05,26,10,55,12.20
2009,05,26,10,56,11.10
2009,05,26,10,57,11.40
2009,05,26,10,58,8.30
2009,05,26,10,59,14.90
2009,05,26,11,00,9.30
2009,05,26,11,01,9.30
2009,05,26,11,02,4.30
2009,05,26,11,03,8.50
2009,05,26,11,04,7.00
2009,05,26,11,05,6.70
2009,05,26,11,06,8.30
2009,05,26,11,07,16.20
2009,05,26,11,08,10.30
2009,05,26,11,09,6.70
2009,05,26,11,10,7.30
2009,05,26,11,11,7.60
2009,05,26,11,12,8.60
2009,05,26,11,13,8.00
2009,05,26,11,14,11.90
2009,05,26,11,15,6.20
2009,05,26,11,16,10.40
2009,05,26,11,17,9.10
2009,05,26,11,18,7.70
2009,05,26,11,19,8.20
2009,05,26,11,20,8.60
2009,05,26,11,21,11.20
2009,05,26,11,22,8.00
2009,05,26,11,23,6.60
2009,05,26,11,24,8.40
2009,05,26,11,25,9.40
2009,05,26,11,26,6.40
2009,05,26,11,27,5.00
2009,05,26,11,28,9.30
2009,05,26,11,29,8.20
2009,05,26,11,30,9.00
2009,05,26,11,31,10.20
2009,05,26,11,32,8.70
2009,05,26,11,33,11.60
2009,05,26,11,34,8.30
2009,05,26,11,35,10.90
2009,05,26,11,36,11.60
2009,05,26,11,37,8.10
2009,05,26,11,38,8.80
2009,05,26,11,39,12.20
2009,05,26,11,40,11.80
2009,05,26,11,41,9.90
2009,05,26,11,42,9.70
2009,05,26,11,43,6.80
2009,05,26,11,44,9.10
2009,05,26,11,45,6.40
2009,05,26,11,46,8.30
2009,05,26,11,47,6.10
2009,05,26,11,48,8.80
2009,05,26,11,49,8.10
2009,05,26,11,50,4.60
2009,05,26,11,51,10.50
2009,05,26,11,52,10.10
2009,05,26,11,53,10.20
2009,05,26,11,54,6.40
2009,05,26,11,55,6.00
2009,05,26,11,56,6.80
2009,05,26,11,57,5.40
2009,05,26,11,58,5.70
2009,05,26,11,59,6.40
2009,05,26,12,00,4.80
2009,05,26,12,01,6.00
2009,05,26,12,02,5.40
2009,05,26,12,03,3.50
2009,05,26,12,04,2.30
2009,05,26,12,05,4.70
2009,05,26,12,06,5.20
2009,05,26,12,07,5.00
2009,05,26,12,08,1.30
2009,05,26,12,09,1.90
2009,05,26,12,10,6.50
2009,05,26,12,11,7.70
2009,05,26,12,12,4.80
2009,05,26,12,13,4.40
2009,05,26,12,14,1.20
2009,05,26,12,15,6.40
2009,05,26,12,16,6.20
2009,05,26,12,17,3.70
2009,05,26,12,18,4.50
2009,05,26,12,19,3.70
2009,05,26,12,20,10.70
2009,05,26,12,21,11.20
2009,05,26,12,22,7.10
2009,05,26,12,23,11.00
2009,05,26,12,24,8.90
2009,05,26,12,25,6.40
2009,05,26,12,26,6.50
2009,05,26,12,27,9.60
2009,05,26,12,28,6.50
2009,05,26,12,29,7.30
2009,05,26,12,30,6.50
2009,05,26,12,31,3.10
2009,05,26,12,32,3.40
2009,05,26,12,33,5.50
2009,05,26,12,34,12.70
2009,05,26,12,35,9.00
2009,05,26,12,36,8.10
2009,05,26,12,37,9.20
2009,05,26,12,38,9.50
2009,05,26,12,39,13.90
2009,05,26,12,40,11.20
2009,05,26,12,41,8.50
2009,05,26,12,42,9.10
2009,05,26,12,43,9.70
2009,05,26,12,44,7.00
2009,05,26,12,45,10.30
2009,05,26,12,46,10.90
2009,05,26,12,47,10.10
2009,05,26,12,48,9.70
2009,05,26,12,49,8.50
2009,05,26,12,50,10.40
2009,05,26,12,51,12.00
2009,05,26,12,52,8.70
2009,05,26,12,53,7.70
2009,05,26,12,54,5.60
2009,05,26,12,55,4.60
2009,05,26,12,56,4.80
2009,05,26,12,57,7.10
2009,05,26,12,58,7.60
2009,05,26,12,59,8.90
2009,05,26,13,00,10.30
2009,05,26,13,01,7.00
2009,05,26,13,02,6.00
2009,05,26,13,03,2.10
2009,05,26,13,04,8.20
2009,05,26,13,05,8.30
2009,05,26,13,06,6.50
2009,05,26,13,07,5.40
2009,05,26,13,08,5.60
2009,05,26,13,09,8.10
2009,05,26,13,10,13.00
2009,05,26,13,11,13.10
2009,05,26,13,12,10.80
2009,05,26,13,13,7.10
2009,05,26,13,14,9.70
2009,05,26,13,15,8.10
2009,05,26,13,16,6.00
2009,05,26,13,17,5.20
2009,05,26,13,18,4.20
2009,05,26,13,19,1.40
2009,05,26,13,20,0.90
2009,05,26,13,21,1.50
2009,05,26,13,22,4.30
2009,05,26,13,23,4.20
2009,05,26,13,24,5.40
2009,05,26,13,25,5.70
2009,05,26,13,26,3.90
2009,05,26,13,27,2.70
2009,05,26,13,28,4.00
2009,05,26,13,29,2.10
2009,05,26,13,30,5.90
2009,05,26,13,31,12.40
2009,05,26,13,32,4.90
2009,05,26,13,33,2.30
2009,05,26,13,34,3.40
2009,05,26,13,35,5.30
2009,05,26,13,36,6.50
2009,05,26,13,37,10.30
2009,05,26,13,38,11.60
2009,05,26,13,39,8.40
2009,05,26,13,40,2.70
2009,05,26,13,41,4.30
2009,05,26,13,42,5.90
2009,05,26,13,43,9.40
2009,05,26,13,44,6.50
2009,05,26,13,45,10.50
2009,05,26,13,46,15.30
2009,05,26,13,47,10.90
2009,05,26,13,48,10.90
2009,05,26,13,49,7.00
2009,05,26,13,50,5.00
2009,05,26,13,51,9.00
2009,05,26,13,52,11.70
2009,05,26,13,53,18.30
2009,05,26,13,54,9.40
2009,05,26,13,55,6.90
2009,05,26,13,56,8.40
2009,05,26,13,57,8.10
2009,05,26,13,58,11.00
2009,05,26,13,59,15.10
2009,05,26,14,00,13.30
2009,05,26,14,01,9.00
2009,05,26,14,02,14.50
2009,05,26,14,03,12.90
2009,05,26,14,04,8.70
2009,05,26,14,05,6.00
2009,05,26,14,06,9.80
2009,05,26,14,07,9.60
2009,05,26,14,08,13.70
2009,05,26,14,09,7.20
2009,05,26,14,10,4.90
2009,05,26,14,11,6.00
2009,05,26,14,12,5.70
2009,05,26,14,13,4.30
2009,05,26,14,14,6.70
2009,05,26,14,15,7.70
2009,05,26,14,16,6.50
2009,05,26,14,17,3.90
2009,05,26,14,18,4.80
2009,05,26,14,19,2.70
2009,05,26,14,20,2.40
2009,05,26,14,21,3.90
2009,05,26,14,22,3.10
2009,05,26,14,23,4.00
2009,05,26,14,24,5.00
2009,05,26,14,25,5.60
2009,05,26,14,26,7.50
2009,05,26,14,27,5.60
2009,05,26,14,28,7.20
2009,05,26,14,29,12.80
2009,05,26,14,30,6.20
2009,05,26,14,31,7.20
2009,05,26,14,32,8.60
2009,05,26,14,33,10.90
2009,05,26,14,34,7.50
2009,05,26,14,35,6.90
2009,05,26,14,36,6.60
2009,05,26,14,37,9.90
2009,05,26,14,38,4.70
2009,05,26,14,39,6.50
2009,05,26,14,40,4.60
2009,05,26,14,41,4.10
2009,05,26,14,42,4.70
2009,05,26,14,43,8.70
2009,05,26,14,44,4.60
2009,05,26,14,45,4.30
2009,05,26,14,46,4.40
2009,05,26,14,47,2.80
2009,05,26,14,48,5.10
2009,05,26,14,49,5.20
2009,05,26,14,50,3.80
2009,05,26,14,51,4.30
2009,05,26,14,52,6.60
2009,05,26,14,53,12.50
2009,05,26,14,54,28.00
2009,05,26,14,55,16.40
2009,05,26,14,56,16.80
2009,05,26,14,57,8.50
2009,05,26,14,58,11.20
2009,05,26,14,59,5.30
2009,05,26,15,00,4.50
2009,05,26,15,01,4.90
2009,05,26,15,02,6.30
2009,05,26,15,03,2.70
2009,05,26,15,04,2.30
2009,05,26,15,05,4.00
2009,05,26,15,06,3.70
2009,05,26,15,07,4.30
2009,05,26,15,08,5.80
2009,05,26,15,09,3.90
2009,05,26,15,10,3.90
2009,05,26,15,11,4.60
2009,05,26,15,12,3.00
2009,05,26,15,13,4.70
2009,05,26,15,14,3.50
2009,05,26,15,15,5.30
2009,05,26,15,16,5.30
2009,05,26,15,17,7.20
2009,05,26,15,18,9.40
2009,05,26,15,19,8.00
2009,05,26,15,20,9.40
2009,05,26,15,21,4.50
2009,05,26,15,22,3.90
2009,05,26,15,23,4.20
2009,05,26,15,24,7.80
2009,05,26,15,25,5.10
2009,05,26,15,26,5.20
2009,05,26,15,27,4.10
2009,05,26,15,28,4.50
2009,05,26,15,29,4.30
2009,05,26,15,30,6.60
2009,05,26,15,31,5.90
2009,05,26,15,32,7.20
2009,05,26,15,33,7.70
2009,05,26,15,34,5.20
2009,05,26,15,35,5.20
2009,05,26,15,36,4.80
2009,05,26,15,37,3.20
2009,05,26,15,38,6.10
2009,05,26,15,39,5.50
2009,05,26,15,40,7.50
2009,05,26,15,41,4.60
2009,05,26,15,42,6.50
2009,05,26,15,43,4.80
2009,05,26,15,44,3.60
2009,05,26,15,45,7.70
2009,05,26,15,46,3.50
2009,05,26,15,47,7.30
2009,05,26,15,48,7.10
2009,05,26,15,49,5.70
2009,05,26,15,50,5.00
2009,05,26,15,51,4.20
2009,05,26,15,52,2.10
2009,05,26,15,53,4.40
2009,05,26,15,54,5.30
2009,05,26,15,55,6.80
2009,05,26,15,56,5.10
2009,05,26,15,57,6.10
2009,05,26,15,58,4.70
2009,05,26,15,59,1.70
2009,05,26,16,00,7.90
2009,05,26,16,01,6.40
2009,05,26,16,02,3.80
2009,05,26,16,03,5.50
2009,05,26,16,04,5.00
2009,05,26,16,05,6.00
2009,05,26,16,06,3.70
2009,05,26,16,07,6.40
2009,05,26,16,08,3.80
2009,05,26,16,09,3.30
2009,05,26,16,10,7.60
2009,05,26,16,11,7.00
2009,05,26,16,12,8.60
2009,05,26,16,13,2.60
2009,05,26,16,14,3.90
2009,05,26,16,15,4.80
2009,05,26,16,16,5.90
2009,05,26,16,17,5.80
2009,05,26,16,18,4.10
2009,05,26,16,19,7.90
2009,05,26,16,20,8.90
2009,05,26,16,21,8.50
2009,05,26,16,22,4.40
2009,05,26,16,23,6.20
2009,05,26,16,24,5.80
2009,05,26,16,25,7.70
2009,05,26,16,26,8.30
2009,05,26,16,27,3.10
2009,05,26,16,28,7.40
2009,05,26,16,29,3.50
2009,05,26,16,30,3.20
2009,05,26,16,31,6.50
2009,05,26,16,32,3.20
2009,05,26,16,33,1.50
2009,05,26,16,34,5.60
2009,05,26,16,35,4.60
2009,05,26,16,36,7.50
2009,05,26,16,37,4.00
2009,05,26,16,38,6.70
2009,05,26,16,39,4.30
2009,05,26,16,40,7.40
2009,05,26,16,41,9.40
2009,05,26,16,42,8.10
2009,05,26,16,43,7.60
2009,05,26,16,44,9.10
2009,05,26,16,45,9.10
2009,05,26,16,46,6.50
2009,05,26,16,47,3.30
2009,05,26,16,48,4.20
2009,05,26,16,49,2.50
2009,05,26,16,50,2.10
2009,05,26,16,51,4.00
2009,05,26,16,52,4.40
2009,05,26,16,53,6.10
2009,05,26,16,54,2.80
2009,05,26,16,55,4.90
2009,05,26,16,56,4.80
2009,05,26,16,57,7.50
2009,05,26,16,58,0.60
2009,05,26,16,59,3.60
2009,05,26,17,00,1.80
2009,05,26,17,01,3.80
2009,05,26,17,02,3.10
2009,05,26,17,03,3.30
2009,05,26,17,04,5.20
2009,05,26,17,05,3.60
2009,05,26,17,06,4.70
2009,05,26,17,07,7.30
2009,05,26,17,08,5.60
2009,05,26,17,09,7.80
2009,05,26,17,10,2.70
2009,05,26,17,11,3.00
2009,05,26,17,12,3.00
2009,05,26,17,13,8.40
2009,05,26,17,14,4.10
2009,05,26,17,15,3.50
2009,05,26,17,16,5.50
2009,05,26,17,17,3.20
2009,05,26,17,18,8.50
2009,05,26,17,19,9.70
2009,05,26,17,20,6.10
2009,05,26,17,21,9.30
2009,05,26,17,22,6.40
2009,05,26,17,23,10.50
2009,05,26,17,24,9.10
2009,05,26,17,25,8.30
2009,05,26,17,26,1.80
2009,05,26,17,27,4.70
2009,05,26,17,28,6.70
2009,05,26,17,29,7.70
2009,05,26,17,30,5.70
2009,05,26,17,31,7.30
2009,05,26,17,32,6.60
2009,05,26,17,33,5.70
2009,05,26,17,34,6.90
2009,05,26,17,35,4.70
2009,05,26,17,36,4.60
2009,05,26,17,37,6.40
2009,05,26,17,38,8.80
2009,05,26,17,39,5.60
2009,05,26,17,40,4.30
2009,05,26,17,41,3.70
2009,05,26,17,42,5.80
2009,05,26,17,43,5.10
2009,05,26,17,44,5.90
2009,05,26,17,45,5.90
2009,05,26,17,46,3.60
2009,05,26,17,47,6.20
2009,05,26,17,48,6.00
2009,05,26,17,49,3.30
2009,05,26,17,50,5.10
2009,05,26,17,51,6.40
2009,05,26,17,52,5.30
2009,05,26,17,53,4.30
2009,05,26,17,54,8.90
2009,05,26,17,55,4.30
2009,05,26,17,56,4.50
2009,05,26,17,57,5.60
2009,05,26,17,58,3.80
2009,05,26,17,59,5.60
2009,05,26,18,00,5.20
2009,05,26,18,01,5.10
2009,05,26,18,02,9.30
2009,05,26,18,03,9.80